TimeEST,TemperatureF,Dew PointF,Humidity,Sea Level PressureIn,VisibilityMPH,Wind Direction,Wind SpeedMPH,Gust SpeedMPH,PrecipitationIn,Events,Conditions,WindDirDegrees,DateUTC
12:15 AM,42.8,30.2,61,29.95,10.0,NW,4.6,-,N/A,,Mostly Cloudy,310,2013-02-16 05:15:00
12:35 AM,44.6,30.2,57,29.96,10.0,NNE,5.8,-,N/A,,Overcast,30,2013-02-16 05:35:00
12:55 AM,44.6,33.8,66,29.96,10.0,NNE,5.8,-,N/A,,Scattered Clouds,30,2013-02-16 05:55:00
1:15 AM,44.6,32.0,61,29.96,10.0,NNE,5.8,-,N/A,,Mostly Cloudy,30,2013-02-16 06:15:00
1:35 AM,44.6,32.0,61,29.96,10.0,NE,4.6,-,N/A,,Overcast,40,2013-02-16 06:35:00
1:55 AM,42.8,30.2,61,29.96,10.0,NNE,3.5,-,N/A,,Overcast,20,2013-02-16 06:55:00
2:15 AM,42.8,30.2,61,29.96,10.0,NNE,6.9,-,N/A,,Overcast,20,2013-02-16 07:15:00
2:35 AM,42.8,30.2,61,29.96,10.0,North,5.8,-,N/A,,Overcast,10,2013-02-16 07:35:00
2:55 AM,42.8,30.2,61,29.96,10.0,NNE,6.9,-,N/A,,Overcast,20,2013-02-16 07:55:00
3:15 AM,42.8,30.2,61,29.96,10.0,North,4.6,-,N/A,,Mostly Cloudy,10,2013-02-16 08:15:00
3:35 AM,42.8,30.2,61,29.95,10.0,NNE,4.6,-,N/A,,Overcast,20,2013-02-16 08:35:00
3:55 AM,42.8,30.2,61,29.95,10.0,NNE,4.6,-,N/A,,Overcast,20,2013-02-16 08:55:00
4:15 AM,42.8,30.2,61,29.94,10.0,North,3.5,-,N/A,,Overcast,10,2013-02-16 09:15:00
4:35 AM,41.0,30.2,65,29.93,10.0,NNE,5.8,-,N/A,,Overcast,30,2013-02-16 09:35:00
4:55 AM,41.0,28.4,61,29.93,10.0,Calm,Calm,-,N/A,,Overcast,0,2013-02-16 09:55:00
5:15 AM,41.0,30.2,65,29.92,10.0,NNE,4.6,-,N/A,,Overcast,20,2013-02-16 10:15:00
5:35 AM,41.0,28.4,61,29.93,10.0,NNE,5.8,-,N/A,,Mostly Cloudy,20,2013-02-16 10:35:00
5:55 AM,39.2,28.4,65,29.92,10.0,NNE,4.6,-,N/A,,Mostly Cloudy,20,2013-02-16 10:55:00
6:15 AM,39.2,28.4,65,29.92,10.0,North,4.6,-,N/A,,Mostly Cloudy,10,2013-02-16 11:15:00
6:35 AM,39.2,28.4,65,29.92,10.0,North,4.6,-,N/A,,Mostly Cloudy,350,2013-02-16 11:35:00
7:15 AM,39.2,28.4,65,29.93,10.0,North,6.9,-,N/A,,Overcast,350,2013-02-16 12:15:00
7:35 AM,39.2,28.4,65,29.94,10.0,NNW,8.1,-,N/A,,Overcast,340,2013-02-16 12:35:00
7:55 AM,39.2,28.4,65,29.93,10.0,North,10.4,-,N/A,,Mostly Cloudy,10,2013-02-16 12:55:00
8:15 AM,37.4,30.2,75,29.94,10.0,NNE,6.9,16.1,N/A,,Overcast,20,2013-02-16 13:15:00
8:35 AM,37.4,30.2,75,29.96,10.0,North,8.1,16.1,N/A,,Overcast,350,2013-02-16 13:35:00
8:55 AM,35.6,30.2,81,29.94,5.0,NNE,5.8,-,0.01,,Overcast,30,2013-02-16 13:55:00
9:15 AM,33.8,30.2,87,29.94,8.0,North,6.9,-,N/A,,Overcast,10,2013-02-16 14:15:00
9:35 AM,33.8,28.4,81,29.93,1.8,Calm,Calm,-,0.01,,Overcast,0,2013-02-16 14:35:00
9:55 AM,32.0,28.4,87,29.92,0.8,NNE,3.5,-,0.01,,Overcast,30,2013-02-16 14:55:00
10:15 AM,32.0,28.4,87,29.93,0.8,Calm,Calm,-,0.01,,Overcast,0,2013-02-16 15:15:00
10:35 AM,32.0,28.4,87,29.93,1.2,Calm,Calm,-,0.01,,Overcast,0,2013-02-16 15:35:00
10:55 AM,33.8,30.2,87,29.93,1.2,Calm,Calm,-,0.02,,Overcast,0,2013-02-16 15:55:00
11:15 AM,33.8,30.2,87,29.93,3.0,Calm,Calm,-,0.06,,Overcast,0,2013-02-16 16:15:00
11:35 AM,33.8,30.2,87,29.92,1.5,Calm,Calm,-,0.11,,Overcast,0,2013-02-16 16:35:00
11:55 AM,33.8,30.2,87,29.91,1.2,Calm,Calm,-,0.14,,Overcast,0,2013-02-16 16:55:00
12:15 PM,33.8,30.2,87,29.91,1.2,Calm,Calm,-,0.03,,Overcast,0,2013-02-16 17:15:00
12:35 PM,33.8,30.2,87,29.89,1.0,Calm,Calm,-,0.05,,Overcast,0,2013-02-16 17:35:00
12:55 PM,32.0,28.4,87,29.89,1.0,Calm,Calm,-,0.07,,Overcast,0,2013-02-16 17:55:00
1:15 PM,33.8,30.2,87,29.87,1.0,Calm,Calm,-,0.03,,Overcast,0,2013-02-16 18:15:00
1:35 PM,33.8,30.2,87,29.86,7.0,Calm,Calm,-,0.05,,Overcast,0,2013-02-16 18:35:00
1:55 PM,33.8,30.2,87,29.87,3.0,Calm,Calm,-,0.06,,Overcast,0,2013-02-16 18:55:00
2:15 PM,33.8,30.2,87,29.86,2.0,Calm,Calm,-,0.02,,Overcast,0,2013-02-16 19:15:00
2:35 PM,33.8,30.2,87,29.85,1.5,Calm,Calm,-,0.04,,Overcast,0,2013-02-16 19:35:00
2:55 PM,33.8,30.2,87,29.85,2.0,North,3.5,-,0.05,,Overcast,10,2013-02-16 19:55:00
3:15 PM,33.8,30.2,87,29.84,2.5,Calm,Calm,-,0.01,,Overcast,0,2013-02-16 20:15:00
3:35 PM,33.8,30.2,87,29.84,1.8,NNE,3.5,-,0.02,,Overcast,20,2013-02-16 20:35:00
3:55 PM,33.8,30.2,87,29.83,3.0,NNE,5.8,-,0.03,,Overcast,30,2013-02-16 20:55:00
4:15 PM,33.8,30.2,87,29.83,2.0,NE,6.9,-,0.01,,Overcast,40,2013-02-16 21:15:00
4:35 PM,33.8,30.2,87,29.83,2.0,North,4.6,-,0.01,,Overcast,10,2013-02-16 21:35:00
4:55 PM,33.8,28.4,81,29.84,3.0,North,4.6,-,0.01,,Overcast,350,2013-02-16 21:55:00
5:15 PM,33.8,30.2,87,29.84,5.0,Calm,Calm,-,0.01,,Overcast,0,2013-02-16 22:15:00
5:35 PM,33.8,30.2,87,29.85,7.0,Calm,Calm,-,0.01,,Overcast,0,2013-02-16 22:35:00
5:55 PM,33.8,28.4,81,29.85,4.0,Calm,Calm,-,0.01,,Overcast,0,2013-02-16 22:55:00
6:15 PM,33.8,30.2,87,29.86,3.0,NNW,3.5,-,N/A,,Overcast,340,2013-02-16 23:15:00
6:35 PM,33.8,28.4,81,29.86,3.0,Calm,Calm,-,N/A,,Overcast,0,2013-02-16 23:35:00
6:55 PM,32.0,30.2,93,29.86,6.0,Calm,Calm,-,N/A,,Overcast,0,2013-02-16 23:55:00
7:15 PM,32.0,28.4,87,29.87,8.0,Calm,Calm,-,N/A,,Mostly Cloudy,0,2013-02-17 00:15:00
7:35 PM,32.0,28.4,87,29.86,10.0,Calm,Calm,-,0.01,,Overcast,0,2013-02-17 00:35:00
7:55 PM,32.0,28.4,87,29.87,9.0,Calm,Calm,-,0.01,,Mostly Cloudy,0,2013-02-17 00:55:00
8:15 PM,32.0,28.4,87,29.87,7.0,Calm,Calm,-,N/A,,Mostly Cloudy,0,2013-02-17 01:15:00
8:35 PM,32.0,28.4,87,29.88,7.0,Calm,Calm,-,N/A,,Overcast,0,2013-02-17 01:35:00
8:55 PM,32.0,28.4,87,29.89,7.0,Calm,Calm,-,N/A,,Overcast,0,2013-02-17 01:55:00
9:15 PM,32.0,28.4,87,29.89,7.0,Calm,Calm,-,N/A,,Overcast,0,2013-02-17 02:15:00
9:35 PM,32.0,28.4,87,29.90,7.0,Calm,Calm,-,N/A,,Overcast,0,2013-02-17 02:35:00
9:55 PM,32.0,28.4,87,29.91,9.0,NW,4.6,-,N/A,,Overcast,310,2013-02-17 02:55:00
10:15 PM,32.0,26.6,80,29.92,10.0,NW,3.5,-,N/A,,Overcast,320,2013-02-17 03:15:00
10:35 PM,32.0,26.6,80,29.92,10.0,NNW,5.8,-,N/A,,Overcast,330,2013-02-17 03:35:00
10:55 PM,30.2,24.8,80,29.92,10.0,NNW,4.6,-,N/A,,Mostly Cloudy,330,2013-02-17 03:55:00
11:15 PM,30.2,23.0,75,29.93,10.0,NNW,3.5,-,N/A,,Scattered Clouds,330,2013-02-17 04:15:00
11:35 PM,30.2,24.8,80,29.94,10.0,NW,3.5,-,N/A,,Mostly Cloudy,310,2013-02-17 04:35:00
11:55 PM,30.2,21.2,69,29.94,10.0,NW,4.6,-,N/A,,Scattered Clouds,320,2013-02-17 04:55:00